UBAKUSAT (43467 NORAD) Tracking and Keplerian Element Data

This shows tracking and keplerian element data for the satellite.

Feedback or suggestion? Click here.




ElementValue
Catalog43467
NameUBAKUSAT
Epoch Orbit5306
Epoch Day106.9113376
Epoch Year2019
RAAN295.0372
Inclination51.6369
Eccentricity0.0002725
Argument of Perigee186.9629
Mean Anonmoly173.1327
Mean Motion15.6138567
Decay Rate0.00012888
L11 43467U 98067NQ 19106.91133760 .00012888 00000-0 15405-3 0 9996
L22 43467 51.6369 295.0372 0002725 186.9629 173.1327 15.61385670 53061

Live tracking and technical data element details for UBAKUSAT (NORAD 43467). UBAKUSAT can be tracked NOW for your location showing map with azimuth and elevation plus other details from your city location.

Track the satellite on the map from your city or location and see movement details for azimuth, elevation, latitude, longitude, range, height, and movement on the map or in text.







IsCatalogInMostPopularTable: catalog: 43467, numindb: 175
Update: records affected: 1



GetName: 43467 UBAKUSAT

Hit Count: updated at: Fri, 19 Apr 2019 20:13:29 GMT